Year,Month,Day,Hour,Minute,Value (Times are PST for temperature in C)
2007,04,01,00,00,4.50
2007,04,01,00,01,4.50
2007,04,01,00,02,4.60
2007,04,01,00,03,4.60
2007,04,01,00,04,4.60
2007,04,01,00,05,4.60
2007,04,01,00,06,4.60
2007,04,01,00,07,4.60
2007,04,01,00,08,4.60
2007,04,01,00,09,4.60
2007,04,01,00,10,4.60
2007,04,01,00,11,4.60
2007,04,01,00,12,4.60
2007,04,01,00,13,4.60
2007,04,01,00,14,4.60
2007,04,01,00,15,4.50
2007,04,01,00,16,4.50
2007,04,01,00,17,4.50
2007,04,01,00,18,4.50
2007,04,01,00,19,4.50
2007,04,01,00,20,4.40
2007,04,01,00,21,4.40
2007,04,01,00,22,4.40
2007,04,01,00,23,4.40
2007,04,01,00,24,4.30
2007,04,01,00,25,4.30
2007,04,01,00,26,4.30
2007,04,01,00,27,4.30
2007,04,01,00,28,4.30
2007,04,01,00,29,4.30
2007,04,01,00,30,4.30
2007,04,01,00,31,4.20
2007,04,01,00,32,4.20
2007,04,01,00,33,4.20
2007,04,01,00,34,4.20
2007,04,01,00,35,4.20
2007,04,01,00,36,4.20
2007,04,01,00,37,4.20
2007,04,01,00,38,4.20
2007,04,01,00,39,4.20
2007,04,01,00,40,4.20
2007,04,01,00,41,4.20
2007,04,01,00,42,4.20
2007,04,01,00,43,4.20
2007,04,01,00,44,4.20
2007,04,01,00,45,4.30
2007,04,01,00,46,4.30
2007,04,01,00,47,4.30
2007,04,01,00,48,4.20
2007,04,01,00,49,4.20
2007,04,01,00,50,4.20
2007,04,01,00,51,4.20
2007,04,01,00,52,4.10
2007,04,01,00,53,4.10
2007,04,01,00,54,4.10
2007,04,01,00,55,4.10
2007,04,01,00,56,4.10
2007,04,01,00,57,4.10
2007,04,01,00,58,4.10
2007,04,01,00,59,4.10
2007,04,01,01,00,4.10
2007,04,01,01,01,4.10
2007,04,01,01,02,4.10
2007,04,01,01,03,4.00
2007,04,01,01,04,4.00
2007,04,01,01,05,4.00
2007,04,01,01,06,4.00
2007,04,01,01,07,4.00
2007,04,01,01,08,4.00
2007,04,01,01,09,4.00
2007,04,01,01,10,4.00
2007,04,01,01,11,4.00
2007,04,01,01,12,4.00
2007,04,01,01,13,4.00
2007,04,01,01,14,4.10
2007,04,01,01,15,4.00
2007,04,01,01,16,4.10
2007,04,01,01,17,4.10
2007,04,01,01,18,4.10
2007,04,01,01,19,4.10
2007,04,01,01,20,4.00
2007,04,01,01,21,4.00
2007,04,01,01,22,4.00
2007,04,01,01,23,4.00
2007,04,01,01,24,4.00
2007,04,01,01,25,4.00
2007,04,01,01,26,4.00
2007,04,01,01,27,4.00
2007,04,01,01,28,4.00
2007,04,01,01,29,4.00
2007,04,01,01,30,4.00
2007,04,01,01,31,4.00
2007,04,01,01,32,4.00
2007,04,01,01,33,4.00
2007,04,01,01,34,4.00
2007,04,01,01,35,3.90
2007,04,01,01,36,3.90
2007,04,01,01,37,3.90
2007,04,01,01,38,3.90
2007,04,01,01,39,3.90
2007,04,01,01,40,3.90
2007,04,01,01,41,3.90
2007,04,01,01,42,3.80
2007,04,01,01,43,3.80
2007,04,01,01,44,3.80
2007,04,01,01,45,3.80
2007,04,01,01,46,3.80
2007,04,01,01,47,3.90
2007,04,01,01,48,3.90
2007,04,01,01,49,3.80
2007,04,01,01,50,3.80
2007,04,01,01,51,3.80
2007,04,01,01,52,3.80
2007,04,01,01,53,3.80
2007,04,01,01,54,3.90
2007,04,01,01,55,3.90
2007,04,01,01,56,3.90
2007,04,01,01,57,3.80
2007,04,01,01,58,3.80
2007,04,01,01,59,3.80
2007,04,01,02,00,3.90
2007,04,01,02,01,3.80
2007,04,01,02,02,3.80
2007,04,01,02,03,3.80
2007,04,01,02,04,3.80
2007,04,01,02,05,3.80
2007,04,01,02,06,3.80
2007,04,01,02,07,3.80
2007,04,01,02,08,3.80
2007,04,01,02,09,3.80
2007,04,01,02,10,3.80
2007,04,01,02,11,3.80
2007,04,01,02,12,3.80
2007,04,01,02,13,3.80
2007,04,01,02,14,3.80
2007,04,01,02,15,3.80
2007,04,01,02,16,3.80
2007,04,01,02,17,3.70
2007,04,01,02,18,3.70
2007,04,01,02,19,3.70
2007,04,01,02,20,3.70
2007,04,01,02,21,3.60
2007,04,01,02,22,3.60
2007,04,01,02,23,3.50
2007,04,01,02,24,3.40
2007,04,01,02,25,3.30
2007,04,01,02,26,3.30
2007,04,01,02,27,3.20
2007,04,01,02,28,3.20
2007,04,01,02,29,3.20
2007,04,01,02,30,3.10
2007,04,01,02,31,3.10
2007,04,01,02,32,3.10
2007,04,01,02,33,3.00
2007,04,01,02,34,3.00
2007,04,01,02,35,3.00
2007,04,01,02,36,3.00
2007,04,01,02,37,3.00
2007,04,01,02,38,3.00
2007,04,01,02,39,3.00
2007,04,01,02,40,3.00
2007,04,01,02,41,2.90
2007,04,01,02,42,2.90
2007,04,01,02,43,2.90
2007,04,01,02,44,2.90
2007,04,01,02,45,2.80
2007,04,01,02,46,2.80
2007,04,01,02,47,2.80
2007,04,01,02,48,2.80
2007,04,01,02,49,2.90
2007,04,01,02,50,2.90
2007,04,01,02,51,2.90
2007,04,01,02,52,2.90
2007,04,01,02,53,2.90
2007,04,01,02,54,2.90
2007,04,01,02,55,2.90
2007,04,01,02,56,2.90
2007,04,01,02,57,2.90
2007,04,01,02,58,2.90
2007,04,01,02,59,2.90
2007,04,01,03,00,2.90
2007,04,01,03,01,2.90
2007,04,01,03,02,2.90
2007,04,01,03,03,2.90
2007,04,01,03,04,3.00
2007,04,01,03,05,3.00
2007,04,01,03,06,3.10
2007,04,01,03,07,3.10
2007,04,01,03,08,3.20
2007,04,01,03,09,3.20
2007,04,01,03,10,3.30
2007,04,01,03,11,3.30
2007,04,01,03,12,3.30
2007,04,01,03,13,3.30
2007,04,01,03,14,3.40
2007,04,01,03,15,3.40
2007,04,01,03,16,3.30
2007,04,01,03,17,3.40
2007,04,01,03,18,3.40
2007,04,01,03,19,3.30
2007,04,01,03,20,3.30
2007,04,01,03,21,3.30
2007,04,01,03,22,3.30
2007,04,01,03,23,3.30
2007,04,01,03,24,3.30
2007,04,01,03,25,3.30
2007,04,01,03,26,3.40
2007,04,01,03,27,3.40
2007,04,01,03,28,3.40
2007,04,01,03,29,3.40
2007,04,01,03,30,3.40
2007,04,01,03,31,3.50
2007,04,01,03,32,3.50
2007,04,01,03,33,3.50
2007,04,01,03,34,3.60
2007,04,01,03,35,3.60
2007,04,01,03,36,3.60
2007,04,01,03,37,3.60
2007,04,01,03,38,3.60
2007,04,01,03,39,3.60
2007,04,01,03,40,3.60
2007,04,01,03,41,3.60
2007,04,01,03,42,3.70
2007,04,01,03,43,3.70
2007,04,01,03,44,3.70
2007,04,01,03,45,3.70
2007,04,01,03,46,3.70
2007,04,01,03,47,3.80
2007,04,01,03,48,3.80
2007,04,01,03,49,3.80
2007,04,01,03,50,3.80
2007,04,01,03,51,3.80
2007,04,01,03,52,3.80
2007,04,01,03,53,3.80
2007,04,01,03,54,3.80
2007,04,01,03,55,3.80
2007,04,01,03,56,3.80
2007,04,01,03,57,3.80
2007,04,01,03,58,3.80
2007,04,01,03,59,3.90
2007,04,01,04,00,3.90
2007,04,01,04,01,3.80
2007,04,01,04,02,3.80
2007,04,01,04,03,3.80
2007,04,01,04,04,3.80
2007,04,01,04,05,3.80
2007,04,01,04,06,3.80
2007,04,01,04,07,3.80
2007,04,01,04,08,3.80
2007,04,01,04,09,3.80
2007,04,01,04,10,3.80
2007,04,01,04,11,3.80
2007,04,01,04,12,3.80
2007,04,01,04,13,3.80
2007,04,01,04,14,3.70
2007,04,01,04,15,3.70
2007,04,01,04,16,3.70
2007,04,01,04,17,3.70
2007,04,01,04,18,3.70
2007,04,01,04,19,3.70
2007,04,01,04,20,3.70
2007,04,01,04,21,3.70
2007,04,01,04,22,3.70
2007,04,01,04,23,3.70
2007,04,01,04,24,3.80
2007,04,01,04,25,3.80
2007,04,01,04,26,3.80
2007,04,01,04,27,3.80
2007,04,01,04,28,3.80
2007,04,01,04,29,3.80
2007,04,01,04,30,3.80
2007,04,01,04,31,3.80
2007,04,01,04,32,3.80
2007,04,01,04,33,3.70
2007,04,01,04,34,3.70
2007,04,01,04,35,3.70
2007,04,01,04,36,3.70
2007,04,01,04,37,3.70
2007,04,01,04,38,3.60
2007,04,01,04,39,3.60
2007,04,01,04,40,3.50
2007,04,01,04,41,3.50
2007,04,01,04,42,3.40
2007,04,01,04,43,3.40
2007,04,01,04,44,3.30
2007,04,01,04,45,3.30
2007,04,01,04,46,3.20
2007,04,01,04,47,3.10
2007,04,01,04,48,3.10
2007,04,01,04,49,3.00
2007,04,01,04,50,3.00
2007,04,01,04,51,2.90
2007,04,01,04,52,2.90
2007,04,01,04,53,2.90
2007,04,01,04,54,2.80
2007,04,01,04,55,2.80
2007,04,01,04,56,2.80
2007,04,01,04,57,2.80
2007,04,01,04,58,2.80
2007,04,01,04,59,2.70
2007,04,01,05,00,2.70
2007,04,01,05,01,2.70
2007,04,01,05,02,2.70
2007,04,01,05,03,2.60
2007,04,01,05,04,2.60
2007,04,01,05,05,2.60
2007,04,01,05,06,2.50
2007,04,01,05,07,2.50
2007,04,01,05,08,2.50
2007,04,01,05,09,2.50
2007,04,01,05,10,2.40
2007,04,01,05,11,2.40
2007,04,01,05,12,2.40
2007,04,01,05,13,2.40
2007,04,01,05,14,2.40
2007,04,01,05,15,2.40
2007,04,01,05,16,2.40
2007,04,01,05,17,2.40
2007,04,01,05,18,2.40
2007,04,01,05,19,2.40
2007,04,01,05,20,2.40
2007,04,01,05,21,2.40
2007,04,01,05,22,2.40
2007,04,01,05,23,2.40
2007,04,01,05,24,2.30
2007,04,01,05,25,2.30
2007,04,01,05,26,2.30
2007,04,01,05,27,2.30
2007,04,01,05,28,2.30
2007,04,01,05,29,2.30
2007,04,01,05,30,2.30
2007,04,01,05,31,2.30
2007,04,01,05,32,2.30
2007,04,01,05,33,2.30
2007,04,01,05,34,2.30
2007,04,01,05,35,2.30
2007,04,01,05,36,2.30
2007,04,01,05,37,2.30
2007,04,01,05,38,2.30
2007,04,01,05,39,2.30
2007,04,01,05,40,2.30
2007,04,01,05,41,2.30
2007,04,01,05,42,2.40
2007,04,01,05,43,2.40
2007,04,01,05,44,2.40
2007,04,01,05,45,2.50
2007,04,01,05,46,2.50
2007,04,01,05,47,2.60
2007,04,01,05,48,2.60
2007,04,01,05,49,2.60
2007,04,01,05,50,2.70
2007,04,01,05,51,2.70
2007,04,01,05,52,2.80
2007,04,01,05,53,2.80
2007,04,01,05,54,2.90
2007,04,01,05,55,2.90
2007,04,01,05,56,2.90
2007,04,01,05,57,3.00
2007,04,01,05,58,3.10
2007,04,01,05,59,3.10
2007,04,01,06,00,3.10
2007,04,01,06,01,3.10
2007,04,01,06,02,3.10
2007,04,01,06,03,3.10
2007,04,01,06,04,3.20
2007,04,01,06,05,3.20
2007,04,01,06,06,3.20
2007,04,01,06,07,3.20
2007,04,01,06,08,3.20
2007,04,01,06,09,3.20
2007,04,01,06,10,3.20
2007,04,01,06,11,3.20
2007,04,01,06,12,3.10
2007,04,01,06,13,3.10
2007,04,01,06,14,3.20
2007,04,01,06,15,3.20
2007,04,01,06,16,3.20
2007,04,01,06,17,3.20
2007,04,01,06,18,3.20
2007,04,01,06,19,3.20
2007,04,01,06,20,3.20
2007,04,01,06,21,3.20
2007,04,01,06,22,3.20
2007,04,01,06,23,3.20
2007,04,01,06,24,3.20
2007,04,01,06,25,3.20
2007,04,01,06,26,3.20
2007,04,01,06,27,3.20
2007,04,01,06,28,3.20
2007,04,01,06,29,3.20
2007,04,01,06,30,3.30
2007,04,01,06,31,3.30
2007,04,01,06,32,3.40
2007,04,01,06,33,3.40
2007,04,01,06,34,3.50
2007,04,01,06,35,3.50
2007,04,01,06,36,3.60
2007,04,01,06,37,3.60
2007,04,01,06,38,3.60
2007,04,01,06,39,3.60
2007,04,01,06,40,3.60
2007,04,01,06,41,3.60
2007,04,01,06,42,3.60
2007,04,01,06,43,3.60
2007,04,01,06,44,3.60
2007,04,01,06,45,3.60
2007,04,01,06,46,3.60
2007,04,01,06,47,3.60
2007,04,01,06,48,3.60
2007,04,01,06,49,3.50
2007,04,01,06,50,3.50
2007,04,01,06,51,3.50
2007,04,01,06,52,3.50
2007,04,01,06,53,3.50
2007,04,01,06,54,3.50
2007,04,01,06,55,3.40
2007,04,01,06,56,3.40
2007,04,01,06,57,3.40
2007,04,01,06,58,3.40
2007,04,01,06,59,3.40
2007,04,01,07,00,3.40
2007,04,01,07,01,3.40
2007,04,01,07,02,3.40
2007,04,01,07,03,3.40
2007,04,01,07,04,3.30
2007,04,01,07,05,3.30
2007,04,01,07,06,3.30
2007,04,01,07,07,3.40
2007,04,01,07,08,3.40
2007,04,01,07,09,3.40
2007,04,01,07,10,3.40
2007,04,01,07,11,3.30
2007,04,01,07,12,3.30
2007,04,01,07,13,3.20
2007,04,01,07,14,3.10
2007,04,01,07,15,3.10
2007,04,01,07,16,3.00
2007,04,01,07,17,3.00
2007,04,01,07,18,2.90
2007,04,01,07,19,2.90
2007,04,01,07,20,2.80
2007,04,01,07,21,2.80
2007,04,01,07,22,2.80
2007,04,01,07,23,2.80
2007,04,01,07,24,2.70
2007,04,01,07,25,2.70
2007,04,01,07,26,2.70
2007,04,01,07,27,2.70
2007,04,01,07,28,2.60
2007,04,01,07,29,2.60
2007,04,01,07,30,2.60
2007,04,01,07,31,2.60
2007,04,01,07,32,2.50
2007,04,01,07,33,2.50
2007,04,01,07,34,2.50
2007,04,01,07,35,2.50
2007,04,01,07,36,2.50
2007,04,01,07,37,2.40
2007,04,01,07,38,2.40
2007,04,01,07,39,2.40
2007,04,01,07,40,2.40
2007,04,01,07,41,2.40
2007,04,01,07,42,2.30
2007,04,01,07,43,2.40
2007,04,01,07,44,2.40
2007,04,01,07,45,2.50
2007,04,01,07,46,2.50
2007,04,01,07,47,2.60
2007,04,01,07,48,2.60
2007,04,01,07,49,2.60
2007,04,01,07,50,2.70
2007,04,01,07,51,2.70
2007,04,01,07,52,2.70
2007,04,01,07,53,2.70
2007,04,01,07,54,2.80
2007,04,01,07,55,2.80
2007,04,01,07,56,2.80
2007,04,01,07,57,2.80
2007,04,01,07,58,2.80
2007,04,01,07,59,2.90
2007,04,01,08,00,2.90
2007,04,01,08,01,3.00
2007,04,01,08,02,3.00
2007,04,01,08,03,3.10
2007,04,01,08,04,3.10
2007,04,01,08,05,3.20
2007,04,01,08,06,3.20
2007,04,01,08,07,3.20
2007,04,01,08,08,3.20
2007,04,01,08,09,3.30
2007,04,01,08,10,3.30
2007,04,01,08,11,3.30
2007,04,01,08,12,3.30
2007,04,01,08,13,3.40
2007,04,01,08,14,3.40
2007,04,01,08,15,3.50
2007,04,01,08,16,3.60
2007,04,01,08,17,3.60
2007,04,01,08,18,3.70
2007,04,01,08,19,3.80
2007,04,01,08,20,3.90
2007,04,01,08,21,4.00
2007,04,01,08,22,4.10
2007,04,01,08,23,4.20
2007,04,01,08,24,4.30
2007,04,01,08,25,4.30
2007,04,01,08,26,4.40
2007,04,01,08,27,4.50
2007,04,01,08,28,4.60
2007,04,01,08,29,4.70
2007,04,01,08,30,4.80
2007,04,01,08,31,4.90
2007,04,01,08,32,5.00
2007,04,01,08,33,5.10
2007,04,01,08,34,5.10
2007,04,01,08,35,5.20
2007,04,01,08,36,5.20
2007,04,01,08,37,5.20
2007,04,01,08,38,5.20
2007,04,01,08,39,5.30
2007,04,01,08,40,5.40
2007,04,01,08,41,5.40
2007,04,01,08,42,5.50
2007,04,01,08,43,5.50
2007,04,01,08,44,5.50
2007,04,01,08,45,5.60
2007,04,01,08,46,5.60
2007,04,01,08,47,5.60
2007,04,01,08,48,5.70
2007,04,01,08,49,5.70
2007,04,01,08,50,5.70
2007,04,01,08,51,5.70
2007,04,01,08,52,5.80
2007,04,01,08,53,5.80
2007,04,01,08,54,5.80
2007,04,01,08,55,5.80
2007,04,01,08,56,5.80
2007,04,01,08,57,5.80
2007,04,01,08,58,5.90
2007,04,01,08,59,5.90
2007,04,01,09,00,6.00
2007,04,01,09,01,6.10
2007,04,01,09,02,6.10
2007,04,01,09,03,6.20
2007,04,01,09,04,6.10
2007,04,01,09,05,6.10
2007,04,01,09,06,6.20
2007,04,01,09,07,6.20
2007,04,01,09,08,6.30
2007,04,01,09,09,6.40
2007,04,01,09,10,6.50
2007,04,01,09,11,6.60
2007,04,01,09,12,6.70
2007,04,01,09,13,6.70
2007,04,01,09,14,6.70
2007,04,01,09,15,6.70
2007,04,01,09,16,6.80
2007,04,01,09,17,6.90
2007,04,01,09,18,6.90
2007,04,01,09,19,6.90
2007,04,01,09,20,6.80
2007,04,01,09,21,6.80
2007,04,01,09,22,6.80
2007,04,01,09,23,6.80
2007,04,01,09,24,6.70
2007,04,01,09,25,6.70
2007,04,01,09,26,6.70
2007,04,01,09,27,6.70
2007,04,01,09,28,6.70
2007,04,01,09,29,6.80
2007,04,01,09,30,6.80
2007,04,01,09,31,6.80
2007,04,01,09,32,6.80
2007,04,01,09,33,6.80
2007,04,01,09,34,6.90
2007,04,01,09,35,7.00
2007,04,01,09,36,7.10
2007,04,01,09,37,7.20
2007,04,01,09,38,7.30
2007,04,01,09,39,7.30
2007,04,01,09,40,7.30
2007,04,01,09,41,7.30
2007,04,01,09,42,7.40
2007,04,01,09,43,7.40
2007,04,01,09,44,7.60
2007,04,01,09,45,7.60
2007,04,01,09,46,7.70
2007,04,01,09,47,7.80
2007,04,01,09,48,7.80
2007,04,01,09,49,7.80
2007,04,01,09,50,7.80
2007,04,01,09,51,7.70
2007,04,01,09,52,7.70
2007,04,01,09,53,7.80
2007,04,01,09,54,7.80
2007,04,01,09,55,7.80
2007,04,01,09,56,7.70
2007,04,01,09,57,7.70
2007,04,01,09,58,7.60
2007,04,01,09,59,7.60
2007,04,01,10,00,7.60
2007,04,01,10,01,7.60
2007,04,01,10,02,7.60
2007,04,01,10,03,7.60
2007,04,01,10,04,7.60
2007,04,01,10,05,7.60
2007,04,01,10,06,7.60
2007,04,01,10,07,7.60
2007,04,01,10,08,7.60
2007,04,01,10,09,7.60
2007,04,01,10,10,7.60
2007,04,01,10,11,7.70
2007,04,01,10,12,7.80
2007,04,01,10,13,7.90
2007,04,01,10,14,7.90
2007,04,01,10,15,7.80
2007,04,01,10,16,7.80
2007,04,01,10,17,7.80
2007,04,01,10,18,7.90
2007,04,01,10,19,8.00
2007,04,01,10,20,8.10
2007,04,01,10,21,8.20
2007,04,01,10,22,8.20
2007,04,01,10,23,8.30
2007,04,01,10,24,8.40
2007,04,01,10,25,8.40
2007,04,01,10,26,8.40
2007,04,01,10,27,8.40
2007,04,01,10,28,8.40
2007,04,01,10,29,8.40
2007,04,01,10,30,8.50
2007,04,01,10,31,8.60
2007,04,01,10,32,8.60
2007,04,01,10,33,8.60
2007,04,01,10,34,8.40
2007,04,01,10,35,8.20
2007,04,01,10,36,8.20
2007,04,01,10,37,8.20
2007,04,01,10,38,8.20
2007,04,01,10,39,8.20
2007,04,01,10,40,8.30
2007,04,01,10,41,8.40
2007,04,01,10,42,8.60
2007,04,01,10,43,8.60
2007,04,01,10,44,8.70
2007,04,01,10,45,8.70
2007,04,01,10,46,8.70
2007,04,01,10,47,8.70
2007,04,01,10,48,8.60
2007,04,01,10,49,8.50
2007,04,01,10,50,8.50
2007,04,01,10,51,8.40
2007,04,01,10,52,8.50
2007,04,01,10,53,8.50
2007,04,01,10,54,8.60
2007,04,01,10,55,8.50
2007,04,01,10,56,8.30
2007,04,01,10,57,8.30
2007,04,01,10,58,8.30
2007,04,01,10,59,8.40
2007,04,01,11,00,8.50
2007,04,01,11,01,8.60
2007,04,01,11,02,8.70
2007,04,01,11,03,8.80
2007,04,01,11,04,8.90
2007,04,01,11,05,9.00
2007,04,01,11,06,9.00
2007,04,01,11,07,9.00
2007,04,01,11,08,9.00
2007,04,01,11,09,9.00
2007,04,01,11,10,8.90
2007,04,01,11,11,8.90
2007,04,01,11,12,8.80
2007,04,01,11,13,8.90
2007,04,01,11,14,8.90
2007,04,01,11,15,8.80
2007,04,01,11,16,8.80
2007,04,01,11,17,8.90
2007,04,01,11,18,8.90
2007,04,01,11,19,8.90
2007,04,01,11,20,8.80
2007,04,01,11,21,8.80
2007,04,01,11,22,8.70
2007,04,01,11,23,8.70
2007,04,01,11,24,8.60
2007,04,01,11,25,8.50
2007,04,01,11,26,8.50
2007,04,01,11,27,8.40
2007,04,01,11,28,8.30
2007,04,01,11,29,8.30
2007,04,01,11,30,8.20
2007,04,01,11,31,8.10
2007,04,01,11,32,8.00
2007,04,01,11,33,7.90
2007,04,01,11,34,7.90
2007,04,01,11,35,7.90
2007,04,01,11,36,7.80
2007,04,01,11,37,7.90
2007,04,01,11,38,8.00
2007,04,01,11,39,8.10
2007,04,01,11,40,8.20
2007,04,01,11,41,8.30
2007,04,01,11,42,8.50
2007,04,01,11,43,8.60
2007,04,01,11,44,8.60
2007,04,01,11,45,8.60
2007,04,01,11,46,8.70
2007,04,01,11,47,8.70
2007,04,01,11,48,8.80
2007,04,01,11,49,8.80
2007,04,01,11,50,8.90
2007,04,01,11,51,9.00
2007,04,01,11,52,9.10
2007,04,01,11,53,9.20
2007,04,01,11,54,9.20
2007,04,01,11,55,9.30
2007,04,01,11,56,9.50
2007,04,01,11,57,9.50
2007,04,01,11,58,9.50
2007,04,01,11,59,9.60
2007,04,01,12,00,9.60
2007,04,01,12,01,9.70
2007,04,01,12,02,9.80
2007,04,01,12,03,9.80
2007,04,01,12,04,9.90
2007,04,01,12,05,10.00
2007,04,01,12,06,10.00
2007,04,01,12,07,10.00
2007,04,01,12,08,10.00
2007,04,01,12,09,9.90
2007,04,01,12,10,9.90
2007,04,01,12,11,9.80
2007,04,01,12,12,9.80
2007,04,01,12,13,9.70
2007,04,01,12,14,9.70
2007,04,01,12,15,9.80
2007,04,01,12,16,9.80
2007,04,01,12,17,9.90
2007,04,01,12,18,10.00
2007,04,01,12,19,10.10
2007,04,01,12,20,10.00
2007,04,01,12,21,9.90
2007,04,01,12,22,9.90
2007,04,01,12,23,9.80
2007,04,01,12,24,9.70
2007,04,01,12,25,9.70
2007,04,01,12,26,9.70
2007,04,01,12,27,9.70
2007,04,01,12,28,9.70
2007,04,01,12,29,9.70
2007,04,01,12,30,9.70
2007,04,01,12,31,9.70
2007,04,01,12,32,9.70
2007,04,01,12,33,9.90
2007,04,01,12,34,10.00
2007,04,01,12,35,10.00
2007,04,01,12,36,10.10
2007,04,01,12,37,10.10
2007,04,01,12,38,10.10
2007,04,01,12,39,10.10
2007,04,01,12,40,10.20
2007,04,01,12,41,10.30
2007,04,01,12,42,10.30
2007,04,01,12,43,10.30
2007,04,01,12,44,10.30
2007,04,01,12,45,10.30
2007,04,01,12,46,10.30
2007,04,01,12,47,10.30
2007,04,01,12,48,10.30
2007,04,01,12,49,10.30
2007,04,01,12,50,10.20
2007,04,01,12,51,10.20
2007,04,01,12,52,10.20
2007,04,01,12,53,10.30
2007,04,01,12,54,10.40
2007,04,01,12,55,10.50
2007,04,01,12,56,10.70
2007,04,01,12,57,10.70
2007,04,01,12,58,10.80
2007,04,01,12,59,10.90
2007,04,01,13,00,11.00
2007,04,01,13,01,11.00
2007,04,01,13,02,11.00
2007,04,01,13,03,11.00
2007,04,01,13,04,11.10
2007,04,01,13,05,11.20
2007,04,01,13,06,11.20
2007,04,01,13,07,11.30
2007,04,01,13,08,11.40
2007,04,01,13,09,11.50
2007,04,01,13,10,11.40
2007,04,01,13,11,11.30
2007,04,01,13,12,11.20
2007,04,01,13,13,11.10
2007,04,01,13,14,10.90
2007,04,01,13,15,10.80
2007,04,01,13,16,10.80
2007,04,01,13,17,10.60
2007,04,01,13,18,10.60
2007,04,01,13,19,10.50
2007,04,01,13,20,10.50
2007,04,01,13,21,10.40
2007,04,01,13,22,10.50
2007,04,01,13,23,10.60
2007,04,01,13,24,10.50
2007,04,01,13,25,10.40
2007,04,01,13,26,10.40
2007,04,01,13,27,10.30
2007,04,01,13,28,10.30
2007,04,01,13,29,10.30
2007,04,01,13,30,10.40
2007,04,01,13,31,10.50
2007,04,01,13,32,10.70
2007,04,01,13,33,10.70
2007,04,01,13,34,10.70
2007,04,01,13,35,10.60
2007,04,01,13,36,10.50
2007,04,01,13,37,10.50
2007,04,01,13,38,10.40
2007,04,01,13,39,10.30
2007,04,01,13,40,10.30
2007,04,01,13,41,10.30
2007,04,01,13,42,10.30
2007,04,01,13,43,10.30
2007,04,01,13,44,10.40
2007,04,01,13,45,10.40
2007,04,01,13,46,10.40
2007,04,01,13,47,10.30
2007,04,01,13,48,10.20
2007,04,01,13,49,10.20
2007,04,01,13,50,10.20
2007,04,01,13,51,10.20
2007,04,01,13,52,10.10
2007,04,01,13,53,10.10
2007,04,01,13,54,10.00
2007,04,01,13,55,10.00
2007,04,01,13,56,10.00
2007,04,01,13,57,10.10
2007,04,01,13,58,10.00
2007,04,01,13,59,9.90
2007,04,01,14,00,9.90
2007,04,01,14,01,9.80
2007,04,01,14,02,9.80
2007,04,01,14,03,9.70
2007,04,01,14,04,9.60
2007,04,01,14,05,9.60
2007,04,01,14,06,9.50
2007,04,01,14,07,9.50
2007,04,01,14,08,9.50
2007,04,01,14,09,9.60
2007,04,01,14,10,9.60
2007,04,01,14,11,9.60
2007,04,01,14,12,9.50
2007,04,01,14,13,9.40
2007,04,01,14,14,9.30
2007,04,01,14,15,9.20
2007,04,01,14,16,9.10
2007,04,01,14,17,9.10
2007,04,01,14,18,9.00
2007,04,01,14,19,8.90
2007,04,01,14,20,8.90
2007,04,01,14,21,8.90
2007,04,01,14,22,8.90
2007,04,01,14,23,8.90
2007,04,01,14,24,8.80
2007,04,01,14,25,8.80
2007,04,01,14,26,8.80
2007,04,01,14,27,8.80
2007,04,01,14,28,8.70
2007,04,01,14,29,8.70
2007,04,01,14,30,8.60
2007,04,01,14,31,8.50
2007,04,01,14,32,8.50
2007,04,01,14,33,8.40
2007,04,01,14,34,8.40
2007,04,01,14,35,8.40
2007,04,01,14,36,8.40
2007,04,01,14,37,8.30
2007,04,01,14,38,8.40
2007,04,01,14,39,8.40
2007,04,01,14,40,8.40
2007,04,01,14,41,8.40
2007,04,01,14,42,8.50
2007,04,01,14,43,8.50
2007,04,01,14,44,8.60
2007,04,01,14,45,8.60
2007,04,01,14,46,8.70
2007,04,01,14,47,8.80
2007,04,01,14,48,8.90
2007,04,01,14,49,9.00
2007,04,01,14,50,9.10
2007,04,01,14,51,9.20
2007,04,01,14,52,9.40
2007,04,01,14,53,9.60
2007,04,01,14,54,9.70
2007,04,01,14,55,9.90
2007,04,01,14,56,10.00
2007,04,01,14,57,10.10
2007,04,01,14,58,10.20
2007,04,01,14,59,10.20
2007,04,01,15,00,10.20
2007,04,01,15,01,10.10
2007,04,01,15,02,10.10
2007,04,01,15,03,10.00
2007,04,01,15,04,9.90
2007,04,01,15,05,9.90
2007,04,01,15,06,9.80
2007,04,01,15,07,9.80
2007,04,01,15,08,9.90
2007,04,01,15,09,9.90
2007,04,01,15,10,9.80
2007,04,01,15,11,9.80
2007,04,01,15,12,9.70
2007,04,01,15,13,9.70
2007,04,01,15,14,9.70
2007,04,01,15,15,9.60
2007,04,01,15,16,9.70
2007,04,01,15,17,9.70
2007,04,01,15,18,9.60
2007,04,01,15,19,9.50
2007,04,01,15,20,9.50
2007,04,01,15,21,9.60
2007,04,01,15,22,9.70
2007,04,01,15,23,9.80
2007,04,01,15,24,9.80
2007,04,01,15,25,9.90
2007,04,01,15,26,10.00
2007,04,01,15,27,10.00
2007,04,01,15,28,10.00
2007,04,01,15,29,10.00
2007,04,01,15,30,10.00
2007,04,01,15,31,10.10
2007,04,01,15,32,10.10
2007,04,01,15,33,10.10
2007,04,01,15,34,10.20
2007,04,01,15,35,10.40
2007,04,01,15,36,10.60
2007,04,01,15,37,10.70
2007,04,01,15,38,10.70
2007,04,01,15,39,10.70
2007,04,01,15,40,10.60
2007,04,01,15,41,10.40
2007,04,01,15,42,10.30
2007,04,01,15,43,10.10
2007,04,01,15,44,10.00
2007,04,01,15,45,9.90
2007,04,01,15,46,9.70
2007,04,01,15,47,9.60
2007,04,01,15,48,9.60
2007,04,01,15,49,9.60
2007,04,01,15,50,9.60
2007,04,01,15,51,9.60
2007,04,01,15,52,9.60
2007,04,01,15,53,9.60
2007,04,01,15,54,9.60
2007,04,01,15,55,9.70
2007,04,01,15,56,9.70
2007,04,01,15,57,9.70
2007,04,01,15,58,9.60
2007,04,01,15,59,9.60
2007,04,01,16,00,9.60
2007,04,01,16,01,9.60
2007,04,01,16,02,9.60
2007,04,01,16,03,9.70
2007,04,01,16,04,9.80
2007,04,01,16,05,9.70
2007,04,01,16,06,9.70
2007,04,01,16,07,9.70
2007,04,01,16,08,9.60
2007,04,01,16,09,9.60
2007,04,01,16,10,9.60
2007,04,01,16,11,9.70
2007,04,01,16,12,9.80
2007,04,01,16,13,9.80
2007,04,01,16,14,9.80
2007,04,01,16,15,9.80
2007,04,01,16,16,9.80
2007,04,01,16,17,9.80
2007,04,01,16,18,9.90
2007,04,01,16,19,9.80
2007,04,01,16,20,9.80
2007,04,01,16,21,9.80
2007,04,01,16,22,9.80
2007,04,01,16,23,9.90
2007,04,01,16,24,9.90
2007,04,01,16,25,9.80
2007,04,01,16,26,9.90
2007,04,01,16,27,9.90
2007,04,01,16,28,9.90
2007,04,01,16,29,9.80
2007,04,01,16,30,9.80
2007,04,01,16,31,9.70
2007,04,01,16,32,9.70
2007,04,01,16,33,9.70
2007,04,01,16,34,9.70
2007,04,01,16,35,9.70
2007,04,01,16,36,9.70
2007,04,01,16,37,9.60
2007,04,01,16,38,9.60
2007,04,01,16,39,9.40
2007,04,01,16,40,9.20
2007,04,01,16,41,8.90
2007,04,01,16,42,8.70
2007,04,01,16,43,8.60
2007,04,01,16,44,8.40
2007,04,01,16,45,8.10
2007,04,01,16,46,8.00
2007,04,01,16,47,7.90
2007,04,01,16,48,8.00
2007,04,01,16,49,7.90
2007,04,01,16,50,8.00
2007,04,01,16,51,8.10
2007,04,01,16,52,8.20
2007,04,01,16,53,8.30
2007,04,01,16,54,8.30
2007,04,01,16,55,8.40
2007,04,01,16,56,8.50
2007,04,01,16,57,8.40
2007,04,01,16,58,8.50
2007,04,01,16,59,8.40
2007,04,01,17,00,8.30
2007,04,01,17,01,8.30
2007,04,01,17,02,8.30
2007,04,01,17,03,8.30
2007,04,01,17,04,8.30
2007,04,01,17,05,8.40
2007,04,01,17,06,8.40
2007,04,01,17,07,8.40
2007,04,01,17,08,8.50
2007,04,01,17,09,8.50
2007,04,01,17,10,8.50
2007,04,01,17,11,8.60
2007,04,01,17,12,8.70
2007,04,01,17,13,8.70
2007,04,01,17,14,8.80
2007,04,01,17,15,8.90
2007,04,01,17,16,9.00
2007,04,01,17,17,9.10
2007,04,01,17,18,9.10
2007,04,01,17,19,9.10
2007,04,01,17,20,9.10
2007,04,01,17,21,9.10
2007,04,01,17,22,9.10
2007,04,01,17,23,9.10
2007,04,01,17,24,9.10
2007,04,01,17,25,9.10
2007,04,01,17,26,9.10
2007,04,01,17,27,9.20
2007,04,01,17,28,9.20
2007,04,01,17,29,9.20
2007,04,01,17,30,9.20
2007,04,01,17,31,9.20
2007,04,01,17,32,9.20
2007,04,01,17,33,9.20
2007,04,01,17,34,9.20
2007,04,01,17,35,9.30
2007,04,01,17,36,9.20
2007,04,01,17,37,9.30
2007,04,01,17,38,9.30
2007,04,01,17,39,9.30
2007,04,01,17,40,9.40
2007,04,01,17,41,9.30
2007,04,01,17,42,9.30
2007,04,01,17,43,9.30
2007,04,01,17,44,9.30
2007,04,01,17,45,9.20
2007,04,01,17,46,9.10
2007,04,01,17,47,9.00
2007,04,01,17,48,9.00
2007,04,01,17,49,9.10
2007,04,01,17,50,9.10
2007,04,01,17,51,9.10
2007,04,01,17,52,9.10
2007,04,01,17,53,9.10
2007,04,01,17,54,9.00
2007,04,01,17,55,9.00
2007,04,01,17,56,9.00
2007,04,01,17,57,8.90
2007,04,01,17,58,8.80
2007,04,01,17,59,8.80
2007,04,01,18,00,8.70
2007,04,01,18,01,8.60